This demonstration page uses our WeatherBlox Daily Observations layout. Learn more.

Left ArrowRight Arrow

41.86663, -103.66717

Hourly Observations for November 24, 2020

Temp ( °F °C ) Dew Point ( °F °C ) Humidity (%) Winds ( mph kmh ) Pressure ( in mb ) Visibility ( mi km ) Precip ( " mm )
12:53 am 00:53 Cloudy 40 4.4 7 -13.9 25 25 WNW 8 13 29.79 1009 10 16 0.00 0.00
1:53 am 01:53 Cloudy 39 3.9 9 -12.8 29 29 WNW 8 13 29.84 1011 10 16 0.00 0.00
2:53 am 02:53 Cloudy 37 2.8 10 -12.2 33 33 WNW 3 6 29.84 1010 10 16 0.00 0.00
3:53 am 03:53 Cloudy 35 1.7 10 -12.2 35 35 W 7 11 29.85 1011 10 16 0.00 0.00
4:53 am 04:53 Mostly Clear 34 1.1 11 -11.7 38 38 NW 9 15 29.85 1011 10 16 0.00 0.00
5:53 am 05:53 Clear 33 0.6 11 -11.7 40 40 NW 8 13 29.88 1012 10 16 0.00 0.00
6:53 am 06:53 Clear 32 0 13 -10.6 45 45 NW 8 13 29.90 1013 10 16 0.00 0.00
7:53 am 07:53 Sunny 33 0.6 14 -10 45 45 WNW 9 15 29.94 1014 10 16 0.00 0.00
8:53 am 08:53 Mostly Cloudy 35 1.7 15 -9.4 44 44 W 8 13 29.97 1015 10 16 0.00 0.00
9:53 am 09:53 Mostly Cloudy 39 3.9 16 -8.9 39 39 WNW 15 24 29.96 1015 10 16 0.00 0.00
10:53 am 10:53 Sunny 44 6.7 17 -8.3 34 34 NW 15 24 29.95 1014 10 16 0.00 0.00
11:53 am 11:53 Mostly Sunny 44 6.7 16 -8.9 32 32 NW 16 26 29.93 1014 10 16 0.00 0.00
12:53 pm 12:53 Sunny 48 8.9 16 -8.9 28 28 NNW 13 20 29.92 1013 10 16 0.00 0.00
1:53 pm 13:53 Sunny 48 8.9 16 -8.9 28 28 NNW 14 22 29.91 1013 10 16 0.00 0.00
2:53 pm 14:53 Sunny 48 8.9 15 -9.4 27 27 NNW 16 26 29.92 1013 10 16 0.00 0.00
3:53 pm 15:53 Sunny 45 7.2 15 -9.4 30 30 NNW 9 15 29.95 1014 10 16 0.00 0.00
4:53 pm 16:53 Clear 36 2.2 14 -10 40 40 N 7 11 29.99 1016 10 16 0.00 0.00
5:53 pm 17:53 Clear 28 -2.2 13 -10.6 53 53 N 6 9 30.03 1017 10 16 0.00 0.00
6:53 pm 18:53 Clear 29 -1.7 14 -10 54 54 NNW 5 7 30.04 1017 10 16 0.00 0.00
7:53 pm 19:53 Clear 24 -4.4 13 -10.6 62 62 N 5 7 30.05 1018 10 16 0.00 0.00
8:53 pm 20:53 Clear 22 -5.6 12 -11.1 66 66 Calm 30.05 1018 10 16 0.00 0.00
9:53 pm 21:53 Clear 22 -5.6 12 -11.1 66 66 NNE 3 6 30.03 1017 10 16 0.00 0.00
10:53 pm 22:53 Clear 23 -5 13 -10.6 65 65 Calm 30.01 1016 10 16 0.00 0.00
11:53 pm 23:53 Clear 19 -7.2 11 -11.7 71 71 Calm 30.01 1016 10 16 0.00 0.00

Powered by AerisWeather